Location: Eaton
(41.3139°N, 82.0207°W)
Time: 01:07:51
(UTC+00:00)

Cosmos 2026 Rocket - Pass Details

Date: 17 June 2021
Orbit: 939 x 1001 km, 82.9° (Epoch: 02 August)

Event Time Altitude Azimuth Distance (km) Brightness Sun altitude
Exits shadow 08:02:41 23° 204° (SSW) 1,921 4.9 -16.2°
Maximum altitude 08:06:36 64° 280° (W) 1,084 4.1 -15.7°
Drops below altitude 10° 08:12:54 10° 1° (N) 2,764 7.2 -15.0°
Sets 08:15:30 0° 5° (N) 3,723 8.0 -14.7°
